Regional Weather Roundup
Issued by NWS

Home | Current Version | Previous Version | Text Only | Print | Product List | Glossary On
Versions: 1 2 3 4 5 6 7 8 9 10 11 12 13 14 15 16 17 18 19 20 21 22 23 24 25 26 27 28 29 30 31 32 33 34 35 36 37 38 39 40 41 42 43 44 45 46 47 48 49 50
868
ASUS45 KABQ 290410
RWRNM
NEW MEXICO REGIONAL WEATHER ROUNDUP
NATIONAL WEATHER SERVICE ALBUQUERQUE NM
1000 PM MDT SUN AUG 28 2016

NOTE: "FAIR" MEANS FEW OR NO CLOUDS BELOW 12,000 FEET AGL WITH NO
       SIGNIFICANT WEATHER OR OBSTRUCTIONS TO VISION.

      THIS PRODUCT IS RELEASED AS TWO VERSIONS.  ONE VERSION NEAR
      THE TOP OF THE HOUR CONTAINING PRELIMINARY DATA FROM ALBUQUERQUE
      AND OTHER STATIONS.  A FINAL VERSION WITH ADDITIONAL DATA IS
      ISSUED ABOUT 10 MINUTES AFTER THE HOUR.

NMZ501-503-504-510>518-290500-
NORTHWEST PLATEAU/NORTHCENTRAL MOUNTAINS

CITY           SKY/WX    TMP DP  RH WIND       PRES   REMARKS
FARMINGTON     FAIR      61  46  57 NE3       30.25R
SANTA FE       FAIR      60  41  49 E6        30.29R
TAOS           CLOUDY    59  36  41 E6        30.34R
ANGEL FIRE     MOCLDY    53  38  57 CALM      30.43R

$$
NMZ402-403-502-505>509-290500-
WESTCENTRAL MOUNTAINS/SOUTHWEST MOUNTAINS

CITY           SKY/WX    TMP DP  RH WIND       PRES   REMARKS
GALLUP         FAIR      51  43  74 CALM      30.32R
GRANTS         FAIR      53  48  81 W7        30.34R
SILVER CITY    FAIR      60  57  88 NW3       30.21R

$$
NMZ407-409-411-412-290500-
SOUTHERN DESERTS

CITY           SKY/WX    TMP DP  RH WIND       PRES   REMARKS
DEMING         FAIR      67  56  67 NE6       30.13R
LAS CRUCES     FAIR      72  56  58 CALM      30.15R
HOLLOMAN AFB   FAIR      71  59  64 S5        30.11R
ALAMOGORDO     FAIR      68  54  60 CALM      30.13S
T OR C         FAIR      70  46  42 NW8       30.17R

$$
NMZ519>523-290500-
CENTRAL VALLEYS/CENTRAL HIGHLANDS

CITY           SKY/WX    TMP DP  RH WIND       PRES   REMARKS
ALBUQUERQUE    FAIR      71  42  35 CALM      30.24R
DOUBLE EAGLE   CLEAR     59  43  55 W3        30.27R
MORIARTY ARPT  FAIR      58  49  74 CALM      30.31R
CLINES CORNERS FAIR      55  47  74 SW6       30.35R
BELEN          FAIR      63  46  53 CALM      30.24R
SOCORRO        FAIR      69  42  38 N5        30.21R

$$
NMZ524>526-539-540-290500-
SOUTHCENTRAL MOUNTAINS

CITY           SKY/WX    TMP DP  RH WIND       PRES   REMARKS
RUIDOSO          N/A     57  48  72 NW5       30.35R

$$
NMZ527>531-290500-
NORTHEAST HIGHLANDS/NORTHEAST PLAINS

CITY           SKY/WX    TMP DP  RH WIND       PRES   REMARKS
LAS VEGAS      FAIR      56  44  64 S10       30.31R
RATON          MOCLDY    70  43  37 SE10G23   30.27R
CLAYTON        FAIR      66  62  87 S9        30.22R

$$
NMZ532>537-290500-
EASTCENTRAL PLAINS

CITY           SKY/WX    TMP DP  RH WIND       PRES   REMARKS
TUCUMCARI      FAIR      69  55  60 S10G21    30.14R
CANNON AFB     FAIR      64  58  79 NE10      30.19S
CLOVIS AIRPORT CLOUDY    68  54  60 E10       30.21S

$$
NMZ028-029-538-290500-
SOUTHEAST PLAINS

CITY           SKY/WX    TMP DP  RH WIND       PRES   REMARKS
ROSWELL        FAIR      71  59  65 NE5       30.13S
ARTESIA        FAIR      70  64  83 NE9       30.14R
CARLSBAD       FAIR      73  61  65 NE3       30.11R
HOBBS          TSTM      63  63 100 E10       30.22R


$$




USA.gov is the U.S. government's official web portal to all federal, state and local government web resources and services.